This is the latest recevied weather packets stored in our database for station/object KE8RXN. If no packets are shown the sender has not sent any weather packets the latest 10 day(s).
| Time | Temp. | Humidity | Pressure | Rain* | Wind** | Luminosity | Snow |
|---|---|---|---|---|---|---|---|
| 1777899706 | 13.89° C | 73% | 1006.8 hPa | 0 mm | - | 255 W/m² | - |
| 1777899404 | 13.33° C | 74% | 1006.9 hPa | 0 mm | - | 256 W/m² | - |
| 1777899102 | 13.33° C | 75% | 1006.9 hPa | 0 mm | - | 239 W/m² | - |
| 1777898798 | 12.78° C | 75% | 1007 hPa | 0 mm | - | 217 W/m² | - |
| 1777898496 | 12.78° C | 76% | 1006.6 hPa | 0 mm | - | 203 W/m² | - |
| 1777898193 | 12.78° C | 76% | 1006.8 hPa | 0 mm | - | 192 W/m² | - |
| 1777897891 | 12.22° C | 77% | 1006.7 hPa | 0 mm | - | 177 W/m² | - |
| 1777897587 | 12.22° C | 78% | 1006.9 hPa | 0 mm | - | 148 W/m² | - |
| 1777897282 | 11.67° C | 78% | 1007 hPa | 0 mm | - | 149 W/m² | - |
| 1777896978 | 11.67° C | 78% | 1006.8 hPa | 0 mm | - | 127 W/m² | - |
| 1777896675 | 11.67° C | 79% | 1006.8 hPa | 0 mm | - | 112 W/m² | - |
| 1777896372 | 11.67° C | 79% | 1006.8 hPa | 0 mm | - | 67 W/m² | - |
| 1777896070 | 11.11° C | 80% | 1006.8 hPa | 0 mm | - | 55 W/m² | - |
| 1777895768 | 11.11° C | 80% | 1006.8 hPa | 0 mm | - | 55 W/m² | - |
| 1777895465 | 11.11° C | 80% | 1006.7 hPa | 0 mm | - | 51 W/m² | - |
| 1777895163 | 11.11° C | 81% | 1006.7 hPa | 0 mm | - | 46 W/m² | - |
| 1777894860 | 10.56° C | 82% | 1006.5 hPa | 0 mm | - | 43 W/m² | - |
| 1777894557 | 10.56° C | 82% | 1006.5 hPa | 0 mm | - | 40 W/m² | - |
| 1777894254 | 10.56° C | 83% | 1006.6 hPa | 0 mm | - | 36 W/m² | - |
| 1777893951 | 10° C | 84% | 1006.6 hPa | 0 mm | - | 30 W/m² | - |
| 1777893648 | 10° C | 85% | 1006.6 hPa | 0 mm | - | 27 W/m² | - |
| 1777893344 | 9.44° C | 86% | 1006.3 hPa | 0 mm | - | 24 W/m² | - |
| 1777893040 | 8.89° C | 88% | 1006.3 hPa | 0 mm | - | 20 W/m² | - |
| 1777892738 | 8.89° C | 89% | 1006.4 hPa | 0 mm | - | 17 W/m² | - |
| 1777892433 | 8.33° C | 90% | 1006.4 hPa | 0 mm | - | 13 W/m² | - |
* Rain latest hour (hover to see other rain measurements)
** Current wind speed in m/s (hover to see current wind gust speed)